User: anonymous   Login
Location: Unspecified
(0.0000°N, 0.0000°E)
Time: 17:46:35
(UTC+00:00)
Language:

GONETS M 07 - Orbit

View from above orbital plane
View from above orbital plane
View from above satellite
View from above satellite

Ground track
Ground track

The orbit data is extracted from the following two-line orbital elements,

1 39251U 13048C   18050.44064393  .00000064  00000-0  39064-3 0  9998
2 39251  82.4869  79.5846 0016572   4.0906 356.0306 12.42880266201407
Epoch (UTC): 19 February 2018 10:34:31
Eccentricity: 0.0016572
inclination: 82.4869°
perigee height: 1481 km
apogee height: 1507 km
right ascension of ascending node: 79.5846°
argument of perigee: 4.0906°
revolutions per day: 12.42880266
mean anomaly at epoch: 356.0306°
orbit number at epoch: 20140

The dashed part of the orbit path shows where the satellite is in the earth's shadow,  

DLR